Chapel Hill, NC

10:53 AM EDT on August 29, 2016 (GMT -0400)
Williams

Weather History for KIGX - December, 2013

Change the Weather History Date:

Tuesday, December 17, 2013

  Actual Average Record
Temperature  
Mean Temperature 46 °F -  
Max Temperature 60 °F 52 °F 78 °F (1971)
Min Temperature 32 °F 30 °F 9 °F (1951)
Degree Days  
Heating Degree Days 19    
Moisture  
Dew Point 34 °F    
Average Humidity 65    
Maximum Humidity 96    
Minimum Humidity 38    
Precipitation  
Precipitation 0.00 in - - ()
Sea Level Pressure  
Sea Level Pressure 30.03 in    
Wind  
Wind Speed 1 mph (NW)    
Max Wind Speed 12 mph    
Max Gust Speed 20 mph    
Visibility 10 miles    
Events      
Averages and records for this station are not official NWS values.
T = Trace of Precipitation, MM = Missing Value Source: NWS Daily Summary

Daily Weather History Graph

Daily Weather History Graph

Search for Another Location

Airport or City:

Trip Planner

Search our weather history database for the weather conditions in past years. The results will help you decide how hot, cold, wet, or windy it might be!

Date:

Astronomy

Dec. 17, 2013 Rise Set
Actual Time 7:20 AM EST 5:04 PM EST
Civil Twilight 6:52 AM EST 5:32 PM EST
Nautical Twilight 6:20 AM EST 6:04 PM EST
Astronomical Twilight 5:48 AM EST 6:36 PM EST
Moon 5:40 PM EST (12/17) 7:17 AM EST (12/17)
Length of Visible Light 10h 40m
Length of Day
9h 43m
Full, 100% of the Moon is Illuminated
Dec 17
Full
Dec 25
Last Quarter
Jan 1
New
Jan 7
First Quarter
Jan 15
Full

Hourly Weather History & Observations

Time (EST) Temp. Windchill Dew Point Humidity Pressure Visibility Wind Dir Wind Speed Gust Speed Precip Events Conditions
12:56 AM 37.9 °F - 33.1 °F 83% 30.12 in 10.0 mi Calm Calm - N/A   Clear
1:56 AM 37.0 °F - 33.1 °F 86% 30.11 in 10.0 mi Calm Calm - N/A   Clear
2:56 AM 36.0 °F - 32.0 °F 86% 30.12 in 10.0 mi Calm Calm - N/A   Clear
3:56 AM 35.1 °F - 32.0 °F 89% 30.12 in 10.0 mi Calm Calm - N/A   Clear
4:56 AM 33.1 °F - 30.9 °F 92% 30.11 in 10.0 mi Calm Calm - N/A   Clear
5:56 AM 32.0 °F - 30.0 °F 92% 30.12 in 10.0 mi Calm Calm - N/A   Clear
6:56 AM 32.0 °F - 30.0 °F 92% 30.12 in 10.0 mi Calm Calm - N/A   Clear
7:56 AM 33.1 °F - 32.0 °F 96% 30.12 in 10.0 mi Calm Calm - N/A   Clear
8:56 AM 39.0 °F - 34.0 °F 82% 30.12 in 10.0 mi Calm Calm - N/A   Clear
9:56 AM 46.0 °F - 34.0 °F 63% 30.12 in 10.0 mi Calm Calm - N/A   Clear
10:56 AM 51.1 °F - 34.0 °F 52% 30.09 in 10.0 mi Calm Calm - N/A   Clear
11:56 AM 55.9 °F - 35.1 °F 45% 30.05 in 10.0 mi Calm Calm - N/A   Clear
12:56 PM 59.0 °F - 34.0 °F 39% 30.00 in 10.0 mi Variable 4.6 mph - N/A   Clear
1:56 PM 60.1 °F - 35.1 °F 39% 29.96 in 10.0 mi Variable 5.8 mph - N/A   Clear
2:56 PM 59.0 °F - 35.1 °F 41% 29.95 in 10.0 mi Variable 5.8 mph - N/A   Clear
3:56 PM 60.1 °F - 34.0 °F 38% 29.94 in 10.0 mi Calm Calm - N/A   Clear
4:56 PM 57.0 °F - 32.0 °F 39% 29.93 in 10.0 mi Variable 3.5 mph - N/A   Clear
5:56 PM 53.1 °F - 35.1 °F 50% 29.91 in 10.0 mi Calm Calm - N/A   Clear
6:56 PM 54.0 °F - 35.1 °F 49% 29.89 in 10.0 mi Calm Calm - N/A   Clear
7:56 PM 55.0 °F - 33.1 °F 43% 29.89 in 10.0 mi Variable 6.9 mph - N/A   Clear
8:56 PM 55.9 °F - 33.1 °F 42% 29.92 in 10.0 mi WSW 9.2 mph - N/A   Mostly Cloudy
9:56 PM 50.0 °F - 37.0 °F 61% 30.00 in 10.0 mi NW 11.5 mph 19.6 mph N/A   Overcast
10:56 PM 46.0 °F 43.1 °F 37.0 °F 71% 30.02 in 10.0 mi NNW 5.8 mph - N/A   Mostly Cloudy
11:56 PM 43.0 °F 40.3 °F 37.0 °F 80% 30.04 in 10.0 mi NW 4.6 mph - N/A   Clear